Butte, MT

6:43 PM MST on February 09, 2016 (GMT -0700)
Mooney

Weather History for KBTM - March, 2013

Change the Weather History Date:

Friday, March 22, 2013

  Actual Average Record
Temperature  
Mean Temperature 17 °F 34 °F  
Max Temperature 28 °F 45 °F 64 °F (1972)
Min Temperature 6 °F 22 °F -19 °F (1898)
Degree Days  
Heating Degree Days 48 31  
Month to date heating degree days 748 770  
Since 1 July heating degree days 7126 7339  
Cooling Degree Days 0 0  
Month to date cooling degree days 0 0  
Year to date cooling degree days 0 0  
Moisture  
Dew Point 10 °F    
Average Humidity 63    
Maximum Humidity 88    
Minimum Humidity 38    
Precipitation  
Precipitation T in 0.03 in 0.50 in (1920)
Month to date precipitation 0.23 0.50  
Year to date precipitation 0.63 1.40  
Sea Level Pressure  
Sea Level Pressure 30.04 in    
Wind  
Wind Speed 5 mph (NNW)    
Max Wind Speed 21 mph    
Max Gust Speed 25 mph    
Visibility 8 miles    
Events Fog , Snow    
T = Trace of Precipitation, MM = Missing Value Source: NWS Daily Summary

Daily Weather History Graph

Daily Weather History Graph

Search for Another Location

Airport or City:

Trip Planner

Search our weather history database for the weather conditions in past years. The results will help you decide how hot, cold, wet, or windy it might be!

Date:

Astronomy

Mar. 22, 2013 Rise Set
Actual Time 7:28 AM MDT 7:45 PM MDT
Civil Twilight 6:58 AM MDT 8:15 PM MDT
Nautical Twilight 6:23 AM MDT 8:50 PM MDT
Astronomical Twilight 5:47 AM MDT 9:27 PM MDT
Moon 3:04 PM MDT (3/22) 4:44 AM MDT (3/22)
Length of Visible Light 13h 16m
Length of Day
12h 17m
Waxing Gibbous, 78% of the Moon is Illuminated
Mar 22
Waxing Gibbous
Mar 27
Full
Apr 2
Last Quarter
Apr 10
New
Apr 18
First Quarter

Hourly Weather History & Observations

Time (MDT) Temp. Windchill Dew Point Humidity Pressure Visibility Wind Dir Wind Speed Gust Speed Precip Events Conditions
12:53 AM 17.1 °F 11.7 °F 8.1 °F 68% 30.02 in 10.0 mi North 3.5 mph - N/A   Clear
1:53 AM 15.1 °F - 7.0 °F 70% 30.01 in 10.0 mi Calm Calm - N/A   Clear
2:53 AM 10.9 °F - 6.1 °F 81% 30.03 in 10.0 mi Calm Calm - N/A   Clear
3:53 AM 10.9 °F - 6.1 °F 81% 30.02 in 10.0 mi Calm Calm - N/A   Partly Cloudy
4:53 AM 9.0 °F 0.6 °F 3.9 °F 80% 30.03 in 10.0 mi South 4.6 mph - N/A   Clear
5:53 AM 7.0 °F -3.3 °F 3.0 °F 84% 30.03 in 10.0 mi SE 5.8 mph - N/A   Clear
6:53 AM 7.0 °F - 3.0 °F 84% 30.04 in 10.0 mi Calm Calm - N/A   Clear
7:53 AM 7.0 °F 0.1 °F 3.0 °F 84% 30.07 in 10.0 mi SSW 3.5 mph - N/A   Clear
8:53 AM 9.0 °F - 5.0 °F 84% 30.09 in 10.0 mi Calm Calm - N/A   Clear
9:53 AM 15.1 °F - 9.0 °F 77% 30.07 in 10.0 mi Calm Calm - N/A   Clear
10:53 AM 18.0 °F 11.1 °F 10.0 °F 71% 30.07 in 10.0 mi SSE 4.6 mph - N/A   Clear
11:53 AM 23.0 °F 18.4 °F 10.9 °F 60% 30.05 in 6.0 mi ENE 3.5 mph - 0.00 in Snow Light Snow
12:14 PM 21.2 °F 14.9 °F 12.2 °F 68% 29.89 in 6.0 mi SE 4.6 mph - 0.00 in Snow Light Snow
12:21 PM 23.0 °F 17.0 °F 12.2 °F 63% 29.89 in 9.0 mi SSE 4.6 mph - 0.00 in Snow Light Snow
12:53 PM 24.1 °F 19.7 °F 10.0 °F 55% 30.04 in 10.0 mi Variable 3.5 mph - 0.00 in   Mostly Cloudy
1:53 PM 25.0 °F 20.7 °F 10.9 °F 55% 30.05 in 10.0 mi South 3.5 mph - N/A   Overcast
2:53 PM 26.1 °F 16.8 °F 7.0 °F 44% 30.05 in 9.0 mi WNW 9.2 mph - N/A   Scattered Clouds
3:53 PM 26.1 °F 20.5 °F 5.0 °F 41% 30.06 in 10.0 mi WNW 4.6 mph 16.1 mph N/A   Mostly Cloudy
4:13 PM 24.8 °F 13.4 °F 14.0 °F 64% 29.90 in 1.8 mi NW 12.7 mph 21.9 mph 0.00 in Snow Light Snow
4:20 PM 24.8 °F 15.3 °F 12.2 °F 59% 29.90 in 1.2 mi West 9.2 mph - 0.00 in Snow Light Snow
4:25 PM 24.8 °F 19.1 °F 10.4 °F 54% 29.90 in 3.0 mi WNW 4.6 mph - 0.00 in Snow Light Snow
4:46 PM 24.8 °F 14.0 °F 6.8 °F 46% 29.91 in 10.0 mi NW 11.5 mph - 0.00 in   Overcast
4:53 PM 25.0 °F 14.8 °F 7.0 °F 46% 30.10 in 10.0 mi WNW 10.4 mph - 0.00 in   Overcast
5:53 PM 24.1 °F 15.2 °F 12.0 °F 60% 30.14 in 10.0 mi NNW 8.1 mph - N/A   Overcast
6:53 PM 23.0 °F 14.7 °F 10.9 °F 60% 30.16 in 10.0 mi West 6.9 mph - N/A   Overcast
7:53 PM 21.9 °F 13.4 °F 14.0 °F 72% 30.18 in 10.0 mi West 6.9 mph - N/A   Mostly Cloudy
8:27 PM 21.2 °F 9.5 °F 15.8 °F 80% 29.98 in 4.0 mi NNW 11.5 mph - 0.00 in Snow Light Snow
8:30 PM 21.2 °F 12.6 °F 15.8 °F 80% 29.98 in 1.8 mi North 6.9 mph - 0.00 in Snow Light Snow
8:34 PM 19.4 °F 8.6 °F 15.8 °F 86% 29.98 in 0.8 mi NNE 9.2 mph - 0.00 in Snow Light Snow
8:43 PM 19.4 °F 7.9 °F 15.8 °F 86% 29.99 in 0.5 mi North 10.4 mph - 0.00 in Fog , Snow Snow
8:49 PM 19.4 °F 9.5 °F 14.0 °F 80% 29.99 in 1.0 mi North 8.1 mph - 0.00 in Snow Light Snow
8:53 PM 19.9 °F 12.1 °F 14.0 °F 78% 30.21 in 3.0 mi North 5.8 mph - 0.00 in Snow Light Snow
9:53 PM 19.9 °F 11.1 °F 10.0 °F 65% 30.20 in 10.0 mi North 6.9 mph - 0.00 in   Overcast
10:53 PM 19.0 °F 7.5 °F 9.0 °F 65% 30.21 in 10.0 mi NNE 10.4 mph - N/A   Overcast
11:53 PM 18.0 °F 8.7 °F 10.0 °F 71% 30.21 in 9.0 mi North 6.9 mph - N/A   Overcast